Previsão horária em Evlakh

Hoje, 24 Outubro, Sábado

Tempo Temperatura Precipitação Vento Pressão Humidade
00:00 +16°C° 0 mm 2 m/s 766 mmHg 84%
01:00 +16°C° 0 mm 2 m/s 766 mmHg 86%
02:00 +15°C° 0 mm 1 m/s 766 mmHg 88%
03:00 +15°C° 0 mm 1 m/s 766 mmHg 90%
04:00 +14°C° 0 mm 0 m/s 765 mmHg 91%
05:00 +14°C° 0 mm 0 m/s 765 mmHg 91%
06:00 +13°C° 0 mm 0 m/s 765 mmHg 91%
07:00 +15°C° 0 mm 0 m/s 765 mmHg 84%
08:00 +19°C° 0 mm 1 m/s 765 mmHg 77%
09:00 +20°C° 0 mm 1 m/s 765 mmHg 70%
10:00 +22°C° 0 mm 1 m/s 764 mmHg 62%
11:00 +23°C° 0 mm 2 m/s 763 mmHg 54%
12:00 +25°C° 0 mm 2 m/s 763 mmHg 46%
13:00 +25°C° 0 mm 2 m/s 762 mmHg 43%
14:00 +26°C° 0 mm 2 m/s 762 mmHg 40%
15:00 +26°C° 0 mm 2 m/s 762 mmHg 36%
16:00 +25°C° 0 mm 1 m/s 762 mmHg 41%
17:00 +23°C° 0 mm 1 m/s 762 mmHg 45%
18:00 +21°C° 0 mm 1 m/s 762 mmHg 49%
19:00 +19°C° 0 mm 0 m/s 762 mmHg 51%
20:00 +18°C° 0 mm 0 m/s 763 mmHg 52%
21:00 +18°C° 0 mm 0 m/s 763 mmHg 54%
22:00 +17°C° 0 mm 0 m/s 763 mmHg 55%
23:00 +19°C° 0 mm 1 m/s 762 mmHg 57%

Amanhã, 25 Outubro, Domingo

Tempo Temperatura Precipitação Vento Pressão Humidade
00:00 +19°C° 0 mm 1 m/s 762 mmHg 58%
01:00 +18°C° 0 mm 1 m/s 762 mmHg 63%
02:00 +16°C° 0 mm 1 m/s 762 mmHg 68%
03:00 +16°C° 0 mm 1 m/s 762 mmHg 73%
04:00 +16°C° 0 mm 1 m/s 762 mmHg 76%
05:00 +14°C° 0 mm 0 m/s 762 mmHg 79%
06:00 +14°C° 0 mm 0 m/s 762 mmHg 81%
07:00 +16°C° 0 mm 0 m/s 762 mmHg 73%
08:00 +18°C° 0 mm 0 m/s 762 mmHg 65%
09:00 +20°C° 0 mm 0 m/s 762 mmHg 56%
10:00 +23°C° 0 mm 1 m/s 761 mmHg 50%
11:00 +25°C° 0 mm 1 m/s 761 mmHg 43%
12:00 +26°C° 0 mm 1 m/s 760 mmHg 36%
13:00 +27°C° 0 mm 1 m/s 760 mmHg 34%
14:00 +27°C° 0 mm 1 m/s 760 mmHg 32%
15:00 +28°C° 0 mm 1 m/s 760 mmHg 30%
16:00 +26°C° 0 mm 1 m/s 760 mmHg 34%
17:00 +25°C° 0 mm 1 m/s 760 mmHg 38%
18:00 +23°C° 0 mm 1 m/s 760 mmHg 42%
19:00 +22°C° 0 mm 1 m/s 760 mmHg 44%
20:00 +22°C° 0 mm 1 m/s 761 mmHg 45%
21:00 +22°C° 0 mm 1 m/s 761 mmHg 47%
22:00 +21°C° 0 mm 1 m/s 761 mmHg 49%
23:00 +21°C° 0 mm 1 m/s 761 mmHg 51%

Depois de amanhã, 26 Outubro, Segunda-feira

Tempo Temperatura Precipitação Vento Pressão Humidade
00:00 +19°C° 0 mm 2 m/s 761 mmHg 52%
01:00 +20°C° 0 mm 1 m/s 761 mmHg 57%
02:00 +19°C° 0 mm 1 m/s 762 mmHg 62%
03:00 +19°C° 0 mm 1 m/s 762 mmHg 66%
04:00 +19°C° 0 mm 1 m/s 762 mmHg 70%
05:00 +18°C° 0 mm 1 m/s 762 mmHg 73%
06:00 +18°C° 0 mm 1 m/s 762 mmHg 77%
07:00 +20°C° 0 mm 1 m/s 763 mmHg 72%
08:00 +21°C° 0 mm 1 m/s 763 mmHg 67%
09:00 +21°C° 0 mm 2 m/s 763 mmHg 62%
10:00 +24°C° 0 mm 2 m/s 763 mmHg 55%
11:00 +25°C° 0 mm 2 m/s 762 mmHg 49%
12:00 +27°C° 0 mm 2 m/s 762 mmHg 42%
13:00 +27°C° 0 mm 3 m/s 762 mmHg 38%
14:00 +28°C° 0 mm 3 m/s 762 mmHg 34%
15:00 +28°C° 0 mm 3 m/s 762 mmHg 31%
16:00 +27°C° 0 mm 3 m/s 762 mmHg 34%
17:00 +25°C° 0 mm 2 m/s 762 mmHg 38%
18:00 +23°C° 0 mm 2 m/s 763 mmHg 41%
19:00 +21°C° 0 mm 2 m/s 763 mmHg 44%
20:00 +20°C° 0 mm 2 m/s 763 mmHg 47%
21:00 +20°C° 0 mm 2 m/s 763 mmHg 49%
22:00 +19°C° 0 mm 2 m/s 763 mmHg 51%
23:00 +18°C° 0 mm 2 m/s 763 mmHg 53%

, 27 Outubro, Terça-feira

Tempo Temperatura Precipitação Vento Pressão Humidade
00:00 +18°C° 0 mm 2 m/s 763 mmHg 55%
01:00 +17°C° 0 mm 2 m/s 763 mmHg 58%
02:00 +18°C° 0 mm 1 m/s 763 mmHg 60%
03:00 +16°C° 0 mm 1 m/s 763 mmHg 63%
04:00 +16°C° 0 mm 1 m/s 763 mmHg 66%
05:00 +15°C° 0 mm 1 m/s 763 mmHg 69%
06:00 +15°C° 0 mm 1 m/s 763 mmHg 72%
07:00 +18°C° 0 mm 1 m/s 763 mmHg 69%
08:00 +18°C° 0 mm 2 m/s 763 mmHg 65%
09:00 +20°C° 0 mm 2 m/s 763 mmHg 62%
10:00 +21°C° 0 mm 3 m/s 763 mmHg 54%
11:00 +24°C° 0 mm 3 m/s 763 mmHg 46%
12:00 +26°C° 0 mm 4 m/s 763 mmHg 38%
13:00 +26°C° 0 mm 4 m/s 763 mmHg 37%
14:00 +26°C° 0 mm 4 m/s 763 mmHg 35%
15:00 +27°C° 0 mm 4 m/s 763 mmHg 34%
16:00 +25°C° 0 mm 4 m/s 763 mmHg 37%
17:00 +22°C° 0 mm 4 m/s 764 mmHg 41%
18:00 +21°C° 0 mm 4 m/s 764 mmHg 45%
19:00 +20°C° 0 mm 4 m/s 764 mmHg 51%
20:00 +19°C° 0 mm 4 m/s 765 mmHg 58%
21:00 +17°C° 0 mm 5 m/s 765 mmHg 65%
22:00 +17°C° 0 mm 4 m/s 765 mmHg 68%
23:00 +16°C° 0 mm 3 m/s 766 mmHg 72%

27 Outubro, Terça-feira

Tempo Temperatura Precipitação Vento Pressão Humidade
00:00 +18°C° 0 mm 2 m/s 763 mmHg 55%
01:00 +17°C° 0 mm 2 m/s 763 mmHg 58%
02:00 +18°C° 0 mm 1 m/s 763 mmHg 60%
03:00 +16°C° 0 mm 1 m/s 763 mmHg 63%
04:00 +16°C° 0 mm 1 m/s 763 mmHg 66%
05:00 +15°C° 0 mm 1 m/s 763 mmHg 69%
06:00 +15°C° 0 mm 1 m/s 763 mmHg 72%
07:00 +18°C° 0 mm 1 m/s 763 mmHg 69%
08:00 +18°C° 0 mm 2 m/s 763 mmHg 65%
09:00 +20°C° 0 mm 2 m/s 763 mmHg 62%
10:00 +21°C° 0 mm 3 m/s 763 mmHg 54%
11:00 +24°C° 0 mm 3 m/s 763 mmHg 46%
12:00 +26°C° 0 mm 4 m/s 763 mmHg 38%
13:00 +26°C° 0 mm 4 m/s 763 mmHg 37%
14:00 +26°C° 0 mm 4 m/s 763 mmHg 35%
15:00 +27°C° 0 mm 4 m/s 763 mmHg 34%
16:00 +25°C° 0 mm 4 m/s 763 mmHg 37%
17:00 +22°C° 0 mm 4 m/s 764 mmHg 41%
18:00 +21°C° 0 mm 4 m/s 764 mmHg 45%
19:00 +20°C° 0 mm 4 m/s 764 mmHg 51%
20:00 +19°C° 0 mm 4 m/s 765 mmHg 58%
21:00 +17°C° 0 mm 5 m/s 765 mmHg 65%
22:00 +17°C° 0 mm 4 m/s 765 mmHg 68%
23:00 +16°C° 0 mm 3 m/s 766 mmHg 72%

28 Outubro, Quarta-feira

Tempo Temperatura Precipitação Vento Pressão Humidade
00:00 +16°C° 0 mm 3 m/s 766 mmHg 75%
01:00 +14°C° 0 mm 3 m/s 766 mmHg 76%
02:00 +15°C° 0 mm 2 m/s 766 mmHg 77%
03:00 +15°C° 0 mm 2 m/s 766 mmHg 78%
04:00 +14°C° 0 mm 2 m/s 766 mmHg 79%
05:00 +14°C° 0 mm 2 m/s 767 mmHg 79%
06:00 +14°C° 0 mm 1 m/s 767 mmHg 80%
07:00 +15°C° 0 mm 2 m/s 767 mmHg 70%
08:00 +17°C° 0 mm 3 m/s 767 mmHg 61%
09:00 +18°C° 0 mm 3 m/s 767 mmHg 52%
10:00 +19°C° 0 mm 3 m/s 767 mmHg 49%
11:00 +21°C° 0 mm 3 m/s 767 mmHg 46%
12:00 +22°C° 0 mm 4 m/s 767 mmHg 43%
13:00 +22°C° 0 mm 3 m/s 767 mmHg 43%
14:00 +22°C° 0 mm 3 m/s 767 mmHg 42%
15:00 +22°C° 0 mm 3 m/s 767 mmHg 42%
16:00 +21°C° 0 mm 3 m/s 767 mmHg 46%
17:00 +20°C° 0 mm 2 m/s 767 mmHg 50%
18:00 +18°C° 0 mm 2 m/s 767 mmHg 54%
19:00 +18°C° 0 mm 2 m/s 768 mmHg 55%
20:00 +17°C° 0 mm 3 m/s 768 mmHg 56%
21:00 +16°C° 0 mm 3 m/s 768 mmHg 57%
22:00 +14°C° 0 mm 3 m/s 768 mmHg 59%
23:00 +14°C° 0 mm 3 m/s 768 mmHg 62%

29 Outubro, Quinta-feira

Tempo Temperatura Precipitação Vento Pressão Humidade
00:00 +13°C° 0 mm 3 m/s 768 mmHg 64%
01:00 +14°C° 0 mm 2 m/s 768 mmHg 65%
02:00 +14°C° 0 mm 2 m/s 767 mmHg 66%
03:00 +14°C° 0 mm 1 m/s 767 mmHg 67%
04:00 +13°C° 0 mm 1 m/s 767 mmHg 69%
05:00 +13°C° 0 mm 1 m/s 767 mmHg 70%
06:00 +12°C° 0 mm 0 m/s 768 mmHg 71%
07:00 +14°C° 0 mm 1 m/s 767 mmHg 66%
08:00 +16°C° 0 mm 1 m/s 767 mmHg 62%
09:00 +18°C° 0 mm 1 m/s 767 mmHg 57%
10:00 +19°C° 0 mm 1 m/s 767 mmHg 52%
11:00 +20°C° 0 mm 1 m/s 767 mmHg 48%
12:00 +22°C° 0 mm 1 m/s 766 mmHg 43%
13:00 +21°C° 0 mm 2 m/s 766 mmHg 42%
14:00 +21°C° 0 mm 2 m/s 765 mmHg 40%
15:00 +23°C° 0 mm 2 m/s 765 mmHg 38%
16:00 +21°C° 0 mm 2 m/s 765 mmHg 42%
17:00 +19°C° 0 mm 2 m/s 766 mmHg 45%
18:00 +18°C° 0 mm 2 m/s 766 mmHg 49%
19:00 +19°C° 0 mm 1 m/s 766 mmHg 52%
20:00 +18°C° 0 mm 1 m/s 766 mmHg 54%
21:00 +16°C° 0 mm 1 m/s 766 mmHg 57%
22:00 +16°C° 0 mm 1 m/s 766 mmHg 60%
23:00 +16°C° 0 mm 1 m/s 766 mmHg 63%
Mostrar mais